User: anonymous   Login
Location: Boston
(42.3580°N, 71.0600°W)
Time: 14:33:16
(UTC-04:00)
Language:

Tiangong 2 - Orbit

View from above orbital plane
View from above orbital plane
View from above satellite
View from above satellite

Ground track
Ground track

The orbit data is extracted from the following two-line orbital elements,

1 41765U 16057A   18201.12379630  .00003136  00000-0  43782-4 0  9996
2 41765  42.7841 144.4911 0005854 141.3378  43.2599 15.59069591105169
Epoch (UTC): 20 July 2018 02:58:16
Eccentricity: 0.0005854
inclination: 42.7841°
perigee height: 386 km
apogee height: 394 km
right ascension of ascending node: 144.4911°
argument of perigee: 141.3378°
revolutions per day: 15.59069591
mean anomaly at epoch: 43.2599°
orbit number at epoch: 10516

The dashed part of the orbit path shows where the satellite is in the earth's shadow,  

DLR